* Astronomy

Members Login
Username 
 
Password 
    Remember Me  
Post Info TOPIC: Asteroid 2012 VZ4


L

Posts: 131433
Date:
Asteroid 2012 VZ4
Permalink  
 


Orbital elements:
2012 VZ4                                                 Earth MOID = 0.2146 AU
Epoch 2012 Sept. 30.0 TT = JDT 2456200.5                MPC
M   3.62261              (2000.0)            P               Q
n   0.31856123     Peri.  304.32110     +0.83760152     +0.46574114
a   2.1232808      Node    31.02791     -0.09201741     +0.63543926
e   0.4981326      Incl.   33.63322     -0.53847609     +0.61587510
P   3.09           H   19.8           G   0.15           U   8

MPEC 2012 - V09



__________________
Page 1 of 1  sorted by
 
Quick Reply

Please log in to post quick replies.



Create your own FREE Forum
Report Abuse
Powered by ActiveBoard